Weather History for Ironwood, MI

Change the Weather History Date:

Thursday, December 5, 2013

  Actual Average Record
Temperature  
Mean Temperature 16 °F -  
Max Temperature 30 °F 30 °F 57 °F (2001)
Min Temperature 3 °F 18 °F -2 °F (2005)
Degree Days  
Heating Degree Days 48    
Moisture  
Dew Point 1 °F    
Average Humidity 71    
Maximum Humidity 80    
Minimum Humidity 62    
Precipitation  
Precipitation 0.00 in - - ()
Sea Level Pressure  
Sea Level Pressure 29.72 in    
Wind  
Wind Speed 7 mph (WSW)    
Max Wind Speed 28 mph    
Max Gust Speed 38 mph    
Visibility 5 miles    
Events      
Averages and records for this station are not official NWS values.
T = Trace of Precipitation, MM = Missing Value Source: NWS Daily Summary

Daily Weather History Graph

Daily Weather History Graph

Search for Another Location

Airport:

Trip Planner

Search our weather history database for the weather conditions in past years. The results will help you decide how hot, cold, wet, or windy it might be!

Date:

Astronomy

Dec. 05, 2013 Rise Set
Actual Time 7:28 AM CST 4:13 PM CST
Civil Twilight 6:54 AM CST 4:48 PM CST
Nautical Twilight 6:16 AM CST 5:26 PM CST
Astronomical Twilight 5:39 AM CST 6:02 PM CST
Moon 9:44 AM CST (12/5) 7:40 PM CST (12/5)
Length of Visible Light 9h 54m
Length of Day
8h 45m
Waxing Crescent, 11% of the Moon is Illuminated
Dec 5
Waxing Crescent
Dec 9
First Quarter
Dec 17
Full
Dec 25
Last Quarter
Jan 1
New

Hourly Weather History & Observations

Time (CST) Temp. Windchill Dew Point Humidity Pressure Visibility Wind Dir Wind Speed Gust Speed Precip Events Conditions
12:15 AM 30.2 °F - 24.8 °F 80% 29.32 in 10.0 mi Calm Calm - N/A   Overcast
12:35 AM - - - N/A% 29.33 in 10.0 mi Calm Calm - N/A   Overcast
12:55 AM - - - N/A% 29.34 in 10.0 mi Calm Calm - N/A   Overcast
1:15 AM - - - N/A% 29.34 in 4.0 mi Calm Calm - N/A   Overcast
1:35 AM - - - N/A% 29.36 in 10.0 mi Calm Calm - N/A   Overcast
1:55 AM - - - N/A% 29.37 in 9.0 mi Calm Calm - N/A   Overcast
2:15 AM - - - N/A% 29.39 in 5.0 mi Calm Calm - N/A   Overcast
2:35 AM - - - N/A% 29.39 in 5.0 mi Calm Calm - N/A   Overcast
2:55 AM - - - N/A% 29.41 in 8.0 mi Calm Calm - N/A   Overcast
3:15 AM - - - N/A% 29.41 in 9.0 mi Calm Calm - N/A   Overcast
3:35 AM - - - N/A% 29.41 in 7.0 mi Calm Calm - N/A   Overcast
3:55 AM 19.4 °F - 12.2 °F 74% 29.45 in 9.0 mi Calm Calm - N/A   Overcast
4:15 AM - - - N/A% 29.46 in 3.0 mi Calm Calm - N/A   Overcast
4:35 AM - - - N/A% 29.47 in 4.0 mi Calm Calm - N/A   Overcast
4:55 AM - - - N/A% 29.48 in 9.0 mi Calm Calm - N/A   Overcast
5:15 AM - - - N/A% 29.49 in 8.0 mi Calm Calm - N/A   Overcast
5:35 AM - - - N/A% 29.50 in 7.0 mi Calm Calm - N/A   Overcast
5:55 AM - - - N/A% 29.52 in 5.0 mi Calm Calm - N/A   Overcast
6:15 AM - - - N/A% 29.54 in 3.0 mi Calm Calm - N/A   Overcast
6:35 AM - - - N/A% 29.55 in 3.0 mi Calm Calm - N/A   Overcast
6:55 AM - - - N/A% 29.56 in 4.0 mi Calm Calm - N/A   Overcast
7:15 AM - - - N/A% 29.58 in 7.0 mi Calm Calm - N/A   Overcast
7:35 AM - - - N/A% 29.59 in 7.0 mi Calm Calm - N/A   Overcast
7:55 AM - - - N/A% 29.60 in 4.0 mi Calm Calm - N/A   Overcast
8:15 AM - - - N/A% 29.62 in 8.0 mi Calm Calm - N/A   Overcast
8:35 AM - - - N/A% 29.63 in 4.0 mi Calm Calm - N/A   Overcast
8:55 AM - - - N/A% 29.64 in 3.0 mi Calm Calm - N/A   Overcast
9:15 AM - - - N/A% 29.65 in 1.8 mi Calm Calm - N/A   Overcast
9:35 AM - - - N/A% 29.66 in 2.0 mi Calm Calm - N/A   Overcast
9:55 AM - - - N/A% 29.68 in 2.0 mi Calm Calm - N/A   Overcast
10:15 AM - - - N/A% 29.69 in 9.0 mi WSW 21.9 mph 27.6 mph N/A   Overcast
10:35 AM 10.4 °F -9.1 °F 3.2 °F 73% 29.70 in 2.0 mi WSW 21.9 mph 29.9 mph N/A   Overcast
10:55 AM 10.4 °F -9.9 °F 3.2 °F 73% 29.71 in 1.5 mi WSW 24.2 mph 35.7 mph N/A   Overcast
11:15 AM 10.4 °F -9.1 °F 3.2 °F 73% 29.72 in 4.0 mi WSW 21.9 mph 27.6 mph N/A   Overcast
11:35 AM - - - N/A% 29.72 in 1.8 mi WSW 25.3 mph 32.2 mph N/A   Overcast
11:55 AM 10.4 °F -9.1 °F 3.2 °F 73% 29.73 in 2.5 mi WSW 21.9 mph 29.9 mph N/A   Overcast
12:15 PM 12.2 °F -6.7 °F 1.4 °F 62% 29.75 in 3.0 mi West 21.9 mph 31.1 mph N/A   Mostly Cloudy
12:35 PM 10.4 °F -10.3 °F 3.2 °F 73% 29.75 in 5.0 mi West 25.3 mph 32.2 mph N/A   Mostly Cloudy
12:55 PM 10.4 °F -10.7 °F 1.4 °F 67% 29.75 in 5.0 mi West 26.5 mph 34.5 mph N/A   Scattered Clouds
1:15 PM 10.4 °F -11.0 °F 3.2 °F 73% 29.76 in 4.0 mi WSW 27.6 mph 38.0 mph N/A   Mostly Cloudy
1:35 PM - - - N/A% 29.77 in 2.5 mi West 26.5 mph 36.8 mph N/A   Overcast
1:55 PM 10.4 °F -9.1 °F 1.4 °F 67% 29.79 in 2.5 mi West 21.9 mph 35.7 mph N/A   Overcast
2:15 PM - - - N/A% 29.79 in 3.0 mi West 24.2 mph 33.4 mph N/A   Overcast
2:35 PM 10.4 °F -9.9 °F 1.4 °F 67% 29.81 in 3.0 mi WSW 24.2 mph 33.4 mph N/A   Overcast
2:55 PM 10.4 °F -8.2 °F 1.4 °F 67% 29.83 in 4.0 mi WSW 19.6 mph 27.6 mph N/A   Overcast
3:15 PM 8.6 °F -10.5 °F 1.4 °F 73% 29.84 in 3.0 mi West 19.6 mph 31.1 mph N/A   Overcast
3:35 PM 8.6 °F -10.0 °F 1.4 °F 73% 29.85 in 2.5 mi West 18.4 mph - N/A   Overcast
3:55 PM 8.6 °F -11.0 °F 1.4 °F 73% 29.86 in 1.8 mi WSW 20.7 mph - N/A   Overcast
4:15 PM 8.6 °F -11.0 °F 1.4 °F 73% 29.86 in 2.5 mi West 20.7 mph 24.2 mph N/A   Overcast
4:35 PM 8.6 °F -10.0 °F 1.4 °F 73% 29.86 in 2.5 mi WSW 18.4 mph - N/A   Overcast
4:55 PM 8.6 °F -10.0 °F 1.4 °F 73% 29.87 in 3.0 mi WSW 18.4 mph 26.5 mph N/A   Overcast
5:15 PM 8.6 °F -11.9 °F -0.4 °F 67% 29.87 in 5.0 mi WSW 23.0 mph - N/A   Overcast
5:35 PM 8.6 °F -11.4 °F 1.4 °F 73% 29.88 in 3.0 mi West 21.9 mph 28.8 mph N/A   Overcast
5:55 PM 8.6 °F -12.7 °F -0.4 °F 67% 29.89 in 5.0 mi WSW 25.3 mph 29.9 mph N/A   Overcast
6:15 PM 8.6 °F -9.5 °F -0.4 °F 67% 29.91 in 8.0 mi WSW 17.3 mph 25.3 mph N/A   Overcast
6:35 PM 6.8 °F -14.3 °F -0.4 °F 72% 29.91 in 5.0 mi WSW 23.0 mph 28.8 mph N/A   Overcast
6:55 PM 6.8 °F -12.9 °F -0.4 °F 72% 29.92 in 6.0 mi WSW 19.6 mph 25.3 mph N/A   Overcast
7:15 PM 6.8 °F -12.4 °F -0.4 °F 72% 29.94 in 5.0 mi WSW 18.4 mph 26.5 mph N/A   Overcast
7:35 PM 6.8 °F -12.9 °F -0.4 °F 72% 29.96 in 5.0 mi WSW 19.6 mph 24.2 mph N/A   Overcast
7:55 PM 6.8 °F -14.3 °F -0.4 °F 72% 29.97 in 3.0 mi West 23.0 mph 27.6 mph N/A   Overcast
8:15 PM 6.8 °F -12.9 °F -0.4 °F 72% 29.98 in 5.0 mi WSW 19.6 mph 24.2 mph N/A   Overcast
8:35 PM 6.8 °F -11.8 °F -0.4 °F 72% 29.99 in 5.0 mi WSW 17.3 mph 26.5 mph N/A   Overcast
8:55 PM 6.8 °F -11.8 °F -0.4 °F 72% 30.01 in 5.0 mi WSW 17.3 mph 29.9 mph N/A   Overcast
9:15 PM 6.8 °F -13.4 °F -2.2 °F 67% 30.02 in 8.0 mi WSW 20.7 mph 27.6 mph N/A   Overcast
9:35 PM 6.8 °F -12.4 °F -0.4 °F 72% 30.02 in 4.0 mi WSW 18.4 mph 28.8 mph N/A   Overcast
9:55 PM 5.0 °F -13.0 °F -2.2 °F 72% 30.04 in 8.0 mi WSW 15.0 mph 24.2 mph N/A   Overcast
10:15 PM 5.0 °F -12.3 °F -2.2 °F 72% 30.04 in 7.0 mi WSW 13.8 mph 24.2 mph N/A   Overcast
10:35 PM 5.0 °F -14.7 °F -2.2 °F 72% 30.04 in 7.0 mi WSW 18.4 mph 24.2 mph N/A   Overcast
10:55 PM 3.2 °F -14.6 °F -4.0 °F 72% 30.05 in 8.0 mi WSW 13.8 mph 19.6 mph N/A   Overcast
11:15 PM 3.2 °F -14.6 °F -2.2 °F 78% 30.06 in 6.0 mi WSW 13.8 mph 26.5 mph N/A   Overcast
11:35 PM 3.2 °F -17.6 °F -4.0 °F 72% 30.06 in 4.0 mi WSW 19.6 mph 24.2 mph N/A   Overcast
11:55 PM 3.2 °F -17.1 °F -4.0 °F 72% 30.07 in 6.0 mi WSW 18.4 mph - N/A   Overcast